Location: Napier
(39.4830°S, 176.9170°E)
Time: 13:49:28
(UTC+13:00)

CZ-4C R/B - Pass Details

Date: 24 January 2019
Orbit: 671 x 1331 km, 63.4° (Epoch: 18 February)

Event Time Altitude Azimuth Distance (km) Brightness Sun altitude
Rises 22:01:49 0° 207° (SSW) 3,652 6.8 -14.6°
Reaches altitude 10° 22:05:40 10° 185° (S) 2,557 5.4 -15.2°
Maximum altitude 22:09:07 16° 149° (SSE) 2,050 4.3 -15.7°
Drops below altitude 10° 22:12:19 10° 111° (ESE) 2,323 4.2 -16.1°
Enters shadow 22:13:13 - 104° (ESE) 2,514 4.4 -16.3°
